Temp
30 29 29 31 31 31 32 30 32 32 31 29 29 29 30 29 28 27 28 27 26 26 26 25 23 23 22 19 18 18 17 16 16 15 16 16 16 16 16 15 14 13 13 13
30 28 31 32 32 31 30 31 31 32 31 29 29 30 31 31 29 28 28 28 27 26 26 25 23 22 22 19 18 18 17 16 16 16 17 17 17 16 16 14 13 12 12 12
29 30 30 31 30 29 30 30 31 30 30 30 29 29 30 32 31 30 29 29 29 27 26 25 23 22 21 19 19 18 18 17 16 17 17 17 17 16 15 14 13 12 11 11
29 30 29 29 29 30 29 29 30 30 29 28 30 27 31 31 32 30 29 29 29 28 27 26 23 22 21 20 19 18 18 17 16 17 17 17 17 16 16 15 13 12 11 10
28 28 28 28 29 29 28 29 29 29 28 28 29 28 30 32 31 31 29 29 28 28 27 26 24 22 21 20 19 18 18 18 17 17 17 17 17 17 16 14 13 12 11 10
28 28 28 28 29 28 28 28 28 28 27 25 28 28 29 28 29 30 29 29 29 28 27 27 25 23 21 20 19 18 18 18 17 17 17 16 17 17 16 14 13 13 12 11
27 27 28 27 27 27 27 26 24 25 24 24 28 27 28 28 28 28 27 26 26 26 27 26 25 23 22 20 19 18 18 18 18 17 16 16 17 17 16 15 14 14 13 12
26 25 27 27 27 27 27 26 24 23 24 25 28 27 26 28 28 27 26 26 25 25 25 27 26 24 23 21 19 19 18 18 18 17 16 16 16 16 16 15 14 13 13 11
26 27 26 27 28 27 27 26 27 25 26 24 26 28 27 28 28 27 26 25 24 24 24 25 26 25 24 22 20 19 18 18 18 17 16 16 15 15 15 13 12 12 11 11
28 26 26 26 26 26 26 26 24 23 20 22 25 27 28 27 27 27 25 24 23 23 23 23 24 24 24 23 20 19 18 19 19 17 16 16 15 14 13 12 11 10 10 9
27 26 25 25 24 26 24 24 25 25 24 22 22 25 27 28 27 25 24 22 21 20 20 20 20 19 20 22 21 18 18 18 17 16 15 14 13 12 11 11 10 9 8 8
27 26 24 25 26 27 26 26 25 19 21 23 23 23 27 27 25 24 22 20 20 19 18 18 17 17 18 20 21 19 18 15 14 14 13 12 11 11 10 10 9 8 8 7
26 24 22 24 24 24 24 25 21 21 24 23 20 23 26 26 24 22 20 20 19 18 17 17 17 17 17 18 18 14 13 13 13 12 11 11 10 10 9 8 8 7 7 6
23 25 24 23 25 23 20 24 18 20 20 21 22 24 25 25 24 21 20 19 18 17 17 16 16 16 16 16 14 13 13 13 12 11 10 9 9 8 8 7 6 6 5 5
24 22 24 25 26 25 25 24 23 19 22 22 23 24 26 24 23 21 20 18 18 17 17 16 15 14 14 14 13 13 13 12 11 10 9 8 8 7 6 6 5 5 4 4
24 23 24 23 25 26 25 26 25 23 23 23 24 24 25 23 22 21 21 19 18 17 16 15 15 14 13 13 12 12 11 10 9 9 8 7 7 6 5 5 5 4 3 3
23 22 23 21 25 25 22 24 25 25 26 25 23 25 24 21 21 20 19 18 17 16 16 15 14 13 13 12 11 10 10 9 8 8 7 6 6 5 5 4 4 3 2 2
23 23 21 20 23 15 23 26 26 25 25 26 26 25 23 21 19 19 19 17 16 16 15 14 13 12 11 11 10 9 8 8 7 7 6 5 4 4 3 3 2 2 2 1
25 23 19 16 20 22 24 26 24 24 24 26 25 23 20 19 18 17 18 17 16 15 14 13 12 11 11 10 9 9 8 7 6 5 5 4 4 3 3 2 1 1 1 1
24 24 21 19 19 19 24 26 26 25 22 26 25 22 20 18 18 16 17 16 15 14 12 12 11 10 9 9 8 8 7 6 5 4 4 4 3 2 2 1 1 1 0 0
20 20 16 19 20 22 26 25 25 21 22 24 24 22 20 19 20 17 16 15 14 12 11 10 10 9 8 8 8 7 6 5 4 4 3 3 2 2 1 0 0 0 0 -0
20 19 17 19 17 17 25 24 22 23 23 23 23 22 18 17 16 16 15 14 13 12 11 10 9 8 8 8 7 5 4 4 3 3 3 2 1 1 0 0 -0 -0 -1 -1
20 22 20 20 19 23 25 24 24 23 22 22 20 18 17 16 15 15 14 13 12 11 10 9 8 7 6 5 5 4 3 3 2 2 2 1 1 -1 -0 -0 -0 -1 -2 -3
24 24 21 22 24 24 24 24 23 23 22 21 19 18 17 16 15 14 14 12 12 11 10 8 7 6 5 4 3 2 2 2 1 1 1 1 -0 -1 -0 -0 -1 -2 -3 -4
23 24 23 23 24 24 24 23 23 23 22 20 19 18 17 16 15 14 13 12 11 10 9 8 7 5 4 3 2 1 1 0 0 0 0 -0 -1 -1 -1 -1 -2 -2 -3 -4
23 23 22 21 24 23 23 23 23 21 20 19 18 17 16 15 14 14 13 12 10 9 8 7 6 5 3 2 1 0 -0 -1 -1 -0 -1 -1 -1 -1 -1 -2 -2 -2 -3 -3
Height
780 794 799 784 781 778 777 792 780 768 772 792 798 796 788 788 796 802 803 809 812 817 823 831 838 844 847 852 858 863 865 869 872 874 874 877 878 880 882 883 885 885 885 885
789 801 781 769 771 776 783 786 782 771 775 789 792 792 779 774 785 790 796 800 805 810 815 823 833 841 846 850 855 860 864 866 870 872 873 874 876 879 881 883 885 885 885 885
796 786 777 777 782 791 787 789 786 787 783 786 793 796 782 766 770 781 786 791 795 802 809 816 825 833 842 847 851 856 861 864 868 870 872 873 875 877 880 883 885 886 885 885
787 781 787 790 794 789 802 789 786 789 797 813 786 817 777 766 767 776 784 790 794 796 801 810 820 829 837 844 849 854 858 861 866 868 870 872 873 875 877 880 882 885 886 886
796 791 795 798 794 788 803 792 794 792 800 802 798 806 785 766 778 778 782 787 792 795 798 804 814 824 832 841 845 851 855 858 862 865 867 869 871 873 875 878 881 884 885 885
791 787 789 790 786 791 794 800 798 799 806 828 805 803 799 793 788 785 785 787 789 790 793 799 808 818 827 836 843 847 852 856 860 863 866 868 871 872 874 876 880 882 884 884
795 796 789 791 799 794 801 812 834 834 835 836 796 807 802 793 791 792 795 797 796 794 792 797 805 816 824 832 839 845 850 853 857 861 865 867 869 871 873 875 879 881 882 883
807 814 792 791 796 801 803 810 834 850 836 825 801 815 812 790 790 793 799 801 802 802 800 800 805 812 819 826 833 840 848 853 856 859 863 867 869 871 873 875 877 879 881 881
800 796 788 789 787 793 800 813 800 822 815 831 815 798 794 786 792 795 803 807 809 808 808 807 808 811 816 822 829 836 844 851 855 858 863 867 870 872 873 873 876 880 880 882
783 801 792 795 795 795 801 798 824 825 858 851 822 809 797 798 797 797 806 812 814 814 813 813 813 814 815 819 824 833 841 847 852 856 862 867 870 872 873 876 879 880 881 882
779 789 802 801 805 802 810 813 810 812 824 840 841 821 793 790 792 801 808 814 820 823 823 822 822 822 820 819 821 831 839 846 850 856 862 867 871 874 878 880 881 881 882 882
778 788 804 802 789 786 790 797 803 841 837 824 825 825 789 789 797 804 814 821 825 828 829 830 831 830 828 826 827 834 842 847 853 858 864 870 874 879 881 882 882 882 882 881
779 795 815 805 802 798 803 796 811 813 807 823 841 822 792 791 800 810 818 824 828 830 833 834 835 835 834 834 837 842 847 853 859 863 869 874 878 881 882 883 883 882 881 880
781 789 798 810 797 801 818 802 820 818 827 823 820 811 799 797 802 812 818 825 830 833 836 838 840 841 842 843 845 851 856 860 864 869 873 878 881 883 884 884 883 882 881 880
785 802 793 785 781 788 791 799 805 824 812 821 810 804 789 794 802 811 817 826 830 834 838 841 845 847 849 851 854 857 861 865 869 874 879 882 885 885 885 884 883 882 881 880
784 797 789 796 785 784 791 784 787 800 804 803 801 799 789 798 804 812 815 822 831 837 841 845 849 852 855 858 861 865 868 872 875 879 882 884 885 885 885 884 883 882 880 879
786 796 795 807 786 786 805 788 783 782 779 786 801 790 789 803 808 812 818 825 834 840 845 849 853 857 861 865 868 872 875 877 880 883 884 885 886 886 885 885 883 882 880 879
782 788 796 810 793 844 791 769 768 776 776 772 774 780 790 803 812 815 820 829 836 842 848 853 858 862 866 870 874 877 879 881 883 885 886 886 887 886 886 884 883 881 879 878
771 780 805 825 808 794 781 770 777 781 781 769 774 783 799 809 817 824 826 832 839 846 852 858 863 867 871 874 877 879 882 884 885 887 887 888 887 886 885 884 882 880 879 877
772 774 792 805 814 812 775 762 760 767 789 764 770 786 800 811 819 829 830 836 844 850 857 862 867 871 874 878 880 882 884 886 888 888 888 887 887 886 885 884 882 881 879 877
788 788 810 800 802 785 761 763 765 795 789 767 771 783 796 806 804 821 832 840 847 854 860 866 870 874 878 880 882 884 886 887 888 888 888 887 887 886 885 884 882 880 879 877
785 791 801 796 809 812 758 767 784 773 768 770 775 783 799 809 817 825 834 842 850 856 863 868 872 876 879 881 883 885 887 888 888 888 888 888 887 886 885 884 882 880 879 878
775 767 780 781 783 761 753 761 763 769 773 775 782 793 801 811 820 828 836 845 852 858 864 869 874 878 882 884 885 888 890 889 889 888 888 888 887 887 885 884 882 881 880 879
749 745 763 764 756 754 755 760 763 767 775 779 787 795 803 811 821 830 838 846 853 859 865 871 876 880 884 887 888 890 890 890 889 888 888 888 888 887 885 884 882 882 881 880
747 747 753 756 751 749 754 761 764 767 775 784 791 797 803 812 822 830 838 845 852 860 866 871 876 880 884 887 889 890 890 890 889 888 888 888 888 886 885 884 882 881 879 879
741 745 754 762 749 752 757 759 765 769 777 785 791 798 807 814 822 830 838 846 853 860 867 872 877 880 884 888 890 890 891 890 890 889 889 889 887 886 884 883 882 879 878 876
Wind_Speed
13 9 11 14 15 18 20 13 17 6 16 14 11 13 16 19 16 15 14 14 13 13 17 18 18 16 18 23 21 19 18 18 14 13 12 11 11 8 7 6 6 5 6 8
6 10 14 15 13 8 11 16 11 9 12 8 11 16 15 14 19 18 15 15 15 14 13 21 22 18 17 25 22 20 19 20 17 14 14 12 13 9 11 9 6 6 5 7
9 14 6 6 4 7 11 10 9 12 10 5 11 16 18 16 20 17 14 11 14 15 15 16 24 24 21 24 22 22 20 21 19 16 12 9 10 8 7 5 8 5 4 6
11 4 4 3 7 5 11 14 10 12 2 8 9 11 19 16 14 18 14 10 8 12 14 15 23 24 25 20 24 20 20 21 20 18 16 14 13 14 16 14 10 4 3 4
5 5 6 9 10 1 5 9 8 9 7 10 13 7 13 9 5 4 12 11 10 8 8 14 22 27 25 22 24 22 21 21 21 20 15 16 11 10 13 10 7 5 2 1
10 2 5 8 4 2 5 7 6 5 6 6 12 12 7 7 9 8 9 7 4 7 9 13 24 27 25 24 23 24 20 21 20 20 18 10 15 10 13 10 7 6 3 2
13 9 3 2 4 3 3 7 3 4 3 4 4 5 8 10 10 10 10 9 7 7 2 7 14 21 22 25 24 23 21 19 20 19 16 13 9 9 5 9 7 7 5 5
12 10 13 8 9 11 9 10 3 4 4 7 2 4 5 10 9 13 12 11 9 8 8 2 9 18 22 26 28 24 20 18 18 17 14 12 9 7 7 6 0 2 2 4
10 9 10 7 5 4 6 8 5 4 6 4 5 8 6 12 11 14 12 11 10 8 6 5 1 11 19 23 28 27 20 18 16 17 13 10 8 6 4 7 5 2 2 3
11 6 9 5 2 3 5 3 3 1 2 3 7 11 1 10 11 12 11 10 10 11 11 8 10 10 6 17 26 29 23 17 15 18 13 9 6 3 6 7 4 4 4 4
13 8 6 6 9 10 5 4 3 0 4 2 2 3 5 10 10 13 9 10 8 8 8 9 14 17 16 11 23 28 22 13 18 16 12 11 10 9 7 5 5 4 5 6
11 4 8 14 4 2 3 9 13 4 4 2 3 4 2 7 12 10 11 9 8 8 8 9 11 12 12 12 13 21 17 20 21 19 17 15 12 7 6 5 5 6 7 10
9 5 3 9 6 3 5 8 4 3 5 9 3 3 3 7 11 10 10 9 7 7 8 8 10 12 13 16 21 29 28 27 23 20 17 13 10 7 7 7 8 9 11 13
2 6 9 5 3 7 4 9 4 4 3 6 9 11 8 11 13 11 10 9 8 8 9 9 10 14 15 17 25 25 23 22 20 18 17 14 10 9 9 9 10 12 14 14
3 4 10 11 9 8 9 10 12 7 12 8 12 14 8 9 11 9 10 10 9 9 10 11 11 15 18 20 21 21 20 19 19 17 14 11 9 8 9 10 11 12 13 15
8 5 7 9 11 11 10 11 12 16 14 15 15 14 11 12 12 9 8 11 10 10 12 13 16 19 19 19 19 20 20 19 17 15 12 10 8 9 10 11 12 13 16 16
10 5 4 5 10 9 8 12 13 13 15 15 11 8 12 12 9 10 10 11 12 13 13 14 17 18 18 18 18 18 17 15 14 12 10 10 10 10 12 12 14 16 16 17
9 10 4 2 2 1 10 13 6 7 10 10 13 7 10 14 11 10 11 13 14 14 14 16 17 18 19 18 17 16 14 13 12 11 10 10 10 10 13 13 15 15 16 17
11 9 3 3 5 9 15 10 8 7 9 6 3 15 16 15 14 11 12 14 14 15 17 18 19 18 18 16 15 14 13 12 10 10 9 9 10 12 13 14 15 15 16 17
13 8 6 4 4 5 5 8 4 1 8 8 11 15 16 16 8 9 14 17 19 21 20 19 19 17 16 14 13 13 12 10 9 8 8 10 11 12 12 14 14 15 16 16
8 7 5 7 5 6 9 11 4 4 3 9 8 15 14 12 3 17 17 19 22 21 21 19 17 16 14 12 12 12 10 9 8 8 8 10 11 11 12 12 13 14 15 16
11 8 4 5 2 11 7 10 5 5 8 10 11 10 15 17 18 17 17 18 23 23 21 18 17 15 13 11 11 11 9 7 7 8 8 10 11 11 11 13 13 14 15 16
13 8 6 9 6 4 5 5 7 7 9 9 15 16 18 18 18 17 16 19 22 22 20 18 17 15 13 11 10 10 8 7 8 8 9 10 11 11 11 12 12 13 14 15
12 11 7 9 11 9 8 5 9 10 10 12 14 16 17 18 18 17 16 19 20 20 19 18 16 15 13 11 10 9 8 8 8 8 9 10 10 11 12 11 11 11 11 11
9 12 10 9 11 11 9 10 9 13 13 14 15 17 17 18 18 18 15 20 20 19 18 16 15 14 12 10 9 8 8 8 9 8 9 10 10 11 12 11 11 7 7 10
10 7 8 7 11 9 11 12 12 14 14 15 16 17 20 21 17 22 19 20 21 19 17 16 14 14 11 9 8 8 8 8 8 8 9 10 11 11 11 13 13 12 10 12
Wind_Direction
196 228 236 230 224 254 280 233 268 182 153 191 231 253 241 176 195 205 196 198 195 189 182 177 168 176 173 159 167 175 173 171 168 168 179 169 169 156 129 109 96 87 78 49
253 241 280 258 279 276 313 283 285 76 132 182 250 253 237 211 186 200 211 191 197 185 185 169 163 178 188 163 175 181 184 177 183 185 190 178 168 177 144 126 120 99 71 77
242 277 4 356 337 290 266 298 303 318 126 239 266 275 261 246 183 190 200 218 195 188 181 169 167 178 184 168 181 186 190 182 190 194 196 179 157 148 142 162 143 106 75 51
249 26 319 290 268 266 282 353 341 314 337 271 168 287 310 203 204 174 182 201 236 193 180 175 170 172 177 188 181 192 191 187 193 204 193 187 180 195 201 162 138 143 91 66
260 310 253 258 244 77 20 342 320 316 310 303 299 269 285 106 120 142 164 180 202 229 192 177 171 169 175 189 183 192 193 191 195 203 206 191 216 173 142 137 134 149 191 59
264 328 288 262 141 100 12 305 291 288 275 273 277 275 17 56 56 104 80 43 358 216 207 175 168 167 174 186 186 186 197 196 196 196 218 220 201 241 154 150 159 203 187 302
238 226 192 324 238 147 226 272 294 244 218 239 273 318 59 86 62 63 65 47 13 6 227 166 154 160 170 177 182 181 199 201 198 196 203 219 222 208 190 172 191 216 234 217
228 235 189 196 219 230 209 231 187 260 271 345 74 257 105 101 108 94 80 71 58 43 14 97 155 165 174 177 177 182 195 212 197 194 195 205 208 216 215 223 178 110 35 71
256 228 81 166 211 208 251 211 266 295 310 279 277 300 153 137 138 109 91 78 69 61 65 34 204 189 182 176 175 178 188 201 203 186 182 195 201 223 191 115 111 34 14 20
257 257 189 157 194 250 267 6 188 145 145 227 262 280 304 155 135 118 94 73 48 33 28 34 25 9 233 188 177 177 181 192 207 166 165 176 163 131 83 78 85 47 21 3
232 258 154 139 209 204 177 217 215 326 199 225 262 263 359 160 154 107 94 75 56 51 38 31 25 12 3 10 159 162 168 189 147 137 128 107 99 84 78 76 61 31 9 345
235 245 225 219 87 302 314 223 213 144 252 198 286 271 18 93 94 80 87 87 84 76 63 52 45 31 28 35 76 144 145 106 107 107 102 93 90 87 73 57 43 16 355 342
212 228 231 175 162 197 237 234 72 329 224 240 175 220 235 122 112 96 104 102 81 80 76 70 66 59 56 59 79 77 84 89 96 96 95 95 87 78 60 38 22 11 1 357
353 216 224 228 82 126 202 210 109 162 223 222 248 274 194 187 146 132 112 100 95 90 94 87 78 78 75 76 82 86 90 96 100 99 92 83 67 58 48 35 18 5 358 353
216 234 269 237 262 198 194 192 183 199 224 216 246 252 284 90 105 104 114 116 108 104 98 96 92 89 87 85 89 90 90 90 91 90 87 80 65 53 36 20 9 3 1 351
202 237 251 224 263 244 251 244 199 203 232 243 258 268 104 114 117 126 138 124 114 113 109 108 107 106 101 100 99 93 86 86 90 88 82 67 51 34 24 12 2 6 359 349
201 208 222 243 250 239 253 241 247 250 233 223 241 277 117 119 117 120 119 123 130 124 122 117 109 106 106 104 101 100 97 94 91 85 71 53 37 25 16 3 4 1 354 351
207 201 173 250 222 325 244 254 252 288 293 285 214 204 98 107 107 108 122 132 133 129 122 118 114 108 104 104 102 99 95 88 79 69 54 41 26 14 7 5 2 357 353 350
218 207 127 146 231 257 284 240 200 214 259 216 242 122 116 116 112 109 126 132 129 125 121 117 115 115 113 110 108 101 91 82 70 55 42 27 15 10 5 8 360 357 350 347
219 238 175 172 226 230 266 84 92 181 254 198 172 135 141 151 151 145 135 131 128 127 123 122 120 111 107 105 102 95 83 71 55 40 25 19 15 7 11 2 357 353 351 352
212 200 206 190 227 262 276 130 148 227 174 128 152 136 151 183 126 134 132 133 133 131 130 129 124 116 113 110 104 93 80 61 42 22 17 18 17 4 9 1 357 354 353 354
192 188 185 212 216 246 259 132 201 94 116 137 128 131 110 113 123 133 136 137 136 137 136 132 126 117 108 107 102 87 67 45 30 19 21 17 12 11 359 0 354 356 1 2
204 205 180 185 203 220 226 99 146 156 139 136 116 122 129 135 141 141 139 141 138 145 140 134 127 115 100 90 91 83 52 32 28 25 23 13 10 5 360 355 359 6 7 16
230 203 202 213 213 223 176 138 147 155 154 126 127 137 141 142 143 142 142 144 148 144 142 138 133 122 109 95 83 73 49 35 31 23 21 12 8 355 356 354 4 1 7 0
236 208 219 229 249 171 180 162 180 149 135 136 139 147 145 145 147 148 149 150 146 144 144 143 133 125 116 103 87 67 50 36 29 20 20 14 358 351 347 358 351 343 340 340
249 240 198 227 221 187 189 169 182 144 144 146 150 145 147 150 150 150 148 146 144 147 141 136 133 128 121 106 88 66 47 36 30 17 22 360 346 347 353 353 340 342 346 344